Hourly Data Report for January 12, 2018

All times are specified in Local Standard Time (LST). Add 1 hour to adjust for Daylight Saving Time where and when it is observed.

MONTREAL INTL A
QUEBEC

45°28'14.000" N
73°44'27.000" W
36.00 m
7025251
71627
YUL

Download Data

Hourly Data (January 2018)
Hourly Data Report for January 12, 2018
Temp Definition
°C
Dew Point Temp Definition
°C
Rel Hum Definition
%
Wind Dir Definition
10's deg

Wind Spd Definition
km/h
Visibility Definition
km
Stn Press Definition
kPa
Hmdx Definition


Wind Chill Definition


Weather Definition


TIME
00:00 6.3 5.0 92 15 31 12.9 100.73     Rain
01:00 6.5 5.6 94 15 31 12.9 100.63     Rain
02:00 6.2 5.3 94 15 27 24.1 100.57     Rain
03:00 6.5 5.5 94 15 27 24.1 100.49     LegendNANA
04:00 6.4 5.5 94 15 26 24.1 100.36     Cloudy
05:00 6.3 5.6 95 15 27 16.1 100.30     Rain
06:00 6.5 5.9 96 14 23 9.7 100.27     Rain,Fog
07:00 6.8 6.3 96 15 27 12.9 100.24     Rain
08:00 7.3 6.8 97 15 26 9.7 100.16     Rain
09:00 7.7 7.2 97 14 21 9.7 100.04     Rain
10:00 8.1 7.6 97 17 16 24.1 100.03     Rain
11:00 7.9 7.5 97 15 28 24.1 99.84     Rain
12:00 8.4 8.0 97 16 16 24.1 99.73     Rain
13:00 8.4 8.0 98 15 25 16.1 99.62     Rain
14:00 9.2 8.9 98 14 20 19.3 99.53     Rain
15:00 9.8 9.4 97 15 23 24.1 99.49     Rain
16:00 8.3 7.9 97 26 10 6.4 99.59     Rain,Fog
17:00 5.3 4.7 95 31 23 12.9 99.85     Rain
18:00 3.5 2.9 96 25 16 12.9 100.10     Rain
19:00 1.7 1.1 95 27 18 4.8 100.27     Rain,Fog
20:00 -0.4 -1.2 94 30 17 6.4 100.49   -5 Freezing Rain,Fog
21:00 -1.1 -2.2 93 2 28 8.1 100.62   -8 Freezing Rain,Fog
22:00 -3.6 -5.3 88 36 26 3.6 100.73   -11 Snow,Ice Pellets,Fog
23:00 -5.0 -6.4 90 35 24 1.2 100.84   -12 Snow,Blowing Snow

Notes on Data Quality.

Legend

  • E = Estimated
  • M = Missing
  • NA = Not Available
Date modified: